Temp
18 18 18 19 19 20 20 20 21 21 22 22 23 23 24 24 25 25 23 23 23 24 25 25 25 24 24 20 19 18 20 20 19 19 20 17 18 15 14 15 14 14 14 12 12
17 18 18 19 19 19 20 21 21 22 22 22 23 23 24 24 25 23 23 24 24 24 25 25 23 23 21 20 18 19 20 20 19 19 19 18 18 17 17 16 15 14 11 10 11
17 17 18 18 19 19 20 21 21 22 22 23 23 24 24 25 24 23 24 24 24 24 25 24 24 23 21 20 18 18 19 19 19 19 18 18 17 16 16 16 17 16 14 9 9
16 17 18 18 18 19 20 21 21 22 22 23 23 24 24 24 23 24 24 24 24 25 25 24 23 22 20 20 19 19 18 18 18 17 17 17 16 16 15 18 16 15 13 10 10
16 17 17 18 18 19 20 21 21 22 22 23 23 24 24 22 22 24 24 24 24 25 24 23 22 21 21 19 19 19 18 17 17 17 16 16 17 17 15 15 13 11 11 11 11
16 17 17 17 18 19 20 21 21 22 22 23 24 24 24 23 24 24 24 24 24 24 23 23 22 20 19 18 19 17 17 17 17 17 17 17 17 16 17 12 12 12 12 11 11
16 16 17 17 18 19 20 21 22 22 23 23 23 24 23 23 24 24 24 24 24 24 23 22 22 21 19 19 17 17 19 17 17 17 17 17 17 17 15 12 13 12 12 11 10
15 16 16 17 18 19 20 21 22 22 23 23 23 24 22 23 24 24 24 23 24 24 23 22 22 18 18 16 17 18 18 20 18 17 16 17 20 18 12 13 13 12 12 11 11
15 16 17 17 18 19 20 21 22 22 23 23 23 23 22 23 24 24 24 23 23 23 22 22 21 17 18 18 19 17 20 19 19 16 17 17 19 17 11 12 14 13 12 11 11
15 15 17 18 18 20 21 21 22 22 22 23 23 22 22 22 23 23 23 24 22 22 21 20 17 18 17 19 21 20 20 19 18 18 15 16 16 17 13 12 14 14 12 11 11
14 15 17 18 18 20 21 21 21 20 22 22 22 22 21 22 23 23 23 23 22 19 20 18 20 20 20 19 19 19 18 18 17 17 16 16 16 18 16 12 13 13 12 12 12
14 15 17 18 19 20 21 19 19 20 21 21 21 21 22 22 22 21 23 22 21 20 19 19 20 19 19 19 19 19 18 18 17 16 16 16 17 18 15 13 14 14 13 12 12
14 15 17 18 19 20 20 19 20 20 19 21 22 22 22 22 21 21 21 20 20 20 19 19 20 20 20 19 19 19 18 18 18 16 15 15 19 18 15 12 12 12 13 13 13
13 15 17 18 19 19 19 20 20 20 17 21 21 22 22 20 21 20 20 21 20 20 18 19 19 20 19 19 18 19 17 17 17 17 19 15 23 19 18 17 14 14 12 13 12
12 14 17 18 18 18 19 20 20 21 20 20 21 22 20 21 20 21 20 21 20 19 20 20 19 19 19 19 18 19 17 16 16 16 16 17 19 22 17 22 20 18 14 12 12
12 15 16 17 18 19 19 20 20 19 20 20 20 20 20 20 20 20 20 19 19 19 18 18 17 18 18 17 17 16 16 14 13 14 20 17 18 22 22 22 20 19 17 14 12
13 15 16 17 18 19 20 19 19 19 20 19 19 19 20 19 20 20 20 19 19 20 20 18 18 17 17 18 17 16 16 19 21 20 21 15 16 21 20 18 18 18 17 15 14
14 15 16 17 18 19 20 18 20 20 18 19 18 18 19 19 19 19 18 18 17 17 16 19 20 17 16 17 18 16 17 18 22 20 19 14 18 23 17 17 15 15 14 13 14
14 15 16 17 17 18 16 18 19 18 19 18 19 19 19 19 19 19 18 17 17 16 20 18 19 16 15 15 16 16 17 15 15 13 15 17 18 19 18 20 17 17 16 16 15
14 15 15 17 17 18 16 17 18 19 19 19 21 19 18 18 19 18 18 18 19 15 18 18 20 16 15 15 14 16 14 18 15 19 20 18 17 20 22 22 19 19 18 18 16
13 13 15 16 17 14 15 15 18 18 20 20 19 18 19 18 17 18 19 19 18 16 17 16 19 17 16 15 15 14 15 13 14 15 19 18 20 17 19 21 21 19 18 16 15
12 13 14 15 14 8 13 15 18 19 19 20 19 19 18 17 17 17 18 18 16 16 18 17 16 17 18 14 14 15 15 14 16 17 12 12 16 16 17 17 17 17 16 15 14
10 10 14 15 14 12 13 16 17 19 19 19 19 20 19 18 21 17 17 17 15 17 17 16 17 18 19 16 14 15 13 12 11 11 12 16 19 16 15 15 15 15 15 15 15
9 12 11 9 9 13 15 17 18 17 20 19 19 19 19 19 17 18 18 17 16 17 16 17 15 18 19 20 16 15 13 12 15 13 14 15 21 22 20 18 18 16 15 15 15
9 11 11 11 11 12 14 16 16 18 17 17 18 18 18 19 18 18 18 16 16 16 15 16 17 15 15 17 16 17 16 12 12 15 18 21 17 21 22 19 20 17 16 15 15
9 10 8 10 10 13 13 15 15 17 17 17 17 17 16 18 19 18 16 16 18 14 15 12 17 14 16 15 14 15 17 15 14 15 15 18 17 20 20 20 17 16 15 14 15
9 9 11 9 9 11 12 13 14 16 17 17 16 17 16 16 17 18 16 16 17 15 14 14 13 14 15 13 15 15 16 17 14 13 16 16 19 21 19 17 16 16 15 15 15
Height
839 839 838 837 837 837 836 836 836 835 835 834 834 834 833 833 833 834 835 837 835 834 834 834 834 833 833 838 841 844 860 871 872 873 867 872 873 878 879 880 882 882 882 884 886
840 840 839 838 838 837 836 836 835 835 834 834 833 833 833 833 834 835 838 836 835 834 835 834 835 834 840 843 847 852 863 866 864 864 867 870 870 875 878 880 880 881 883 884 887
841 841 839 839 838 837 836 835 835 835 834 834 833 833 832 833 835 838 837 835 835 835 835 835 835 836 845 847 854 858 865 865 864 864 865 869 872 875 876 878 871 872 876 883 887
842 841 840 839 838 837 835 835 834 834 834 834 833 833 832 833 851 837 836 836 835 835 836 836 837 844 853 855 856 863 865 864 864 865 867 870 872 874 874 866 868 869 873 880 883
842 841 840 839 837 836 835 834 834 834 834 833 833 832 833 836 840 838 836 836 836 836 836 837 841 847 856 858 859 863 866 865 865 865 867 869 869 869 868 865 867 869 873 876 881
841 840 839 838 837 836 834 833 833 833 833 833 833 833 834 844 839 838 836 836 836 837 838 839 841 844 855 861 861 866 867 867 866 866 868 869 869 870 861 865 868 870 871 875 877
841 840 839 837 836 835 833 833 832 832 833 833 833 833 834 840 838 838 838 837 837 837 839 840 841 844 854 862 864 866 867 869 868 868 869 868 871 864 862 866 867 869 870 873 875
840 839 838 836 835 834 832 832 832 832 832 832 833 834 839 838 838 839 839 839 839 839 839 842 842 848 857 863 866 869 871 872 869 871 871 871 861 854 862 864 865 869 871 873 874
838 837 836 835 834 832 831 831 831 832 833 833 834 834 842 839 839 840 840 840 841 841 842 842 844 857 862 867 873 876 874 875 870 872 872 873 860 855 864 864 861 864 868 871 872
837 836 835 834 833 831 831 831 832 833 834 834 834 840 840 841 839 840 840 841 842 843 844 847 856 863 870 868 878 878 877 877 877 869 873 873 862 855 859 863 858 860 864 866 867
835 834 833 833 832 831 831 832 836 838 834 837 837 838 838 839 839 840 841 841 843 848 859 859 865 871 869 869 870 872 877 879 874 870 872 867 859 845 847 856 854 852 855 857 858
832 832 832 832 831 830 831 832 833 835 841 836 836 837 837 838 842 841 841 845 849 861 859 865 870 866 864 867 868 871 876 876 872 870 872 865 849 835 840 843 844 846 849 851 854
829 829 830 830 830 831 831 833 833 834 843 839 837 837 838 839 844 844 842 846 853 859 863 869 865 862 863 869 871 873 875 876 877 873 873 870 841 835 838 844 843 842 841 844 846
826 827 828 829 833 830 832 833 833 834 860 849 842 839 839 838 846 843 844 847 854 861 865 864 863 864 867 870 873 875 873 875 876 878 873 876 855 837 836 834 838 834 838 837 841
824 825 827 829 828 830 832 832 833 835 876 847 843 838 839 844 847 846 845 845 857 861 863 865 866 867 869 870 871 874 875 879 881 884 884 876 874 832 839 824 823 824 829 832 831
823 824 826 828 828 830 831 832 835 862 874 851 843 846 847 847 849 848 848 848 853 860 863 867 867 868 870 872 872 874 877 885 891 889 875 880 878 840 831 825 824 823 823 825 826
822 823 825 827 828 829 830 833 860 870 846 853 852 848 851 854 854 852 855 859 865 870 870 869 871 870 868 871 873 875 880 879 870 877 868 886 884 838 829 829 827 824 823 823 823
821 822 824 826 827 828 830 844 860 847 851 844 848 853 856 855 856 858 861 865 863 866 880 876 875 872 872 872 873 881 880 884 880 885 881 888 870 829 829 826 826 827 827 825 822
820 822 824 825 827 828 835 858 847 844 838 845 846 853 857 853 855 859 863 865 858 860 866 876 871 874 875 874 876 880 881 884 894 909 899 876 857 831 823 819 821 823 823 820 817
818 820 823 824 826 829 843 850 838 830 832 836 843 847 860 858 858 862 862 853 851 858 854 862 869 877 877 876 881 879 885 884 894 888 881 871 871 842 822 817 819 818 817 815 813
818 822 823 824 826 834 849 846 833 826 825 833 840 848 848 854 857 861 856 850 848 856 856 863 865 878 877 882 881 889 888 898 896 898 887 884 857 831 824 816 815 814 814 813 812
817 826 822 823 837 852 846 836 825 823 823 826 831 834 843 850 855 856 853 848 846 850 858 858 871 876 873 881 880 879 881 884 888 886 910 909 866 825 822 819 818 815 812 810 808
818 824 823 823 838 844 839 831 826 825 825 828 830 828 833 843 843 849 848 843 847 847 852 857 870 876 868 879 879 877 881 885 894 898 897 887 847 821 823 821 816 814 809 806 802
816 827 827 827 834 831 832 828 826 821 820 822 826 826 832 836 842 847 847 845 845 845 846 848 866 861 868 857 867 875 879 885 877 891 880 867 827 811 810 814 805 808 805 802 798
811 816 817 829 830 828 827 824 827 825 823 822 826 827 831 840 841 845 844 849 849 848 853 853 860 865 861 857 862 857 863 876 879 862 857 823 842 803 798 803 796 798 797 798 794
809 812 818 823 823 823 826 824 825 822 823 825 827 826 830 834 831 840 843 846 842 853 854 861 859 865 859 858 864 862 847 853 855 850 849 835 834 792 791 795 795 794 795 795 788
800 801 802 822 826 826 824 816 820 815 814 813 818 824 831 826 823 824 828 831 833 844 854 860 864 869 865 866 860 862 839 830 844 838 829 836 797 785 791 791 791 789 787 783 780
Wind_Speed
5 4 3 3 2 2 2 2 3 3 4 4 5 6 5 4 5 6 7 6 4 3 3 3 5 6 6 4 5 2 3 2 5 6 2 5 3 1 1 5 3 3 2 2 23
5 4 4 4 3 3 3 3 3 3 3 4 5 6 4 5 9 12 7 6 4 3 4 5 4 6 4 3 3 4 2 4 3 3 3 6 2 7 3 2 4 3 2 6 26
5 5 5 4 4 4 4 3 3 3 3 3 4 5 2 6 4 1 7 5 4 4 5 4 5 3 4 3 5 2 2 3 1 1 3 6 2 5 6 4 8 7 9 15 20
5 5 5 5 5 4 4 4 3 3 3 3 4 4 3 3 2 3 6 2 3 3 3 4 4 3 3 3 2 4 2 0 1 3 4 5 7 4 7 3 1 8 11 18 21
5 5 6 6 6 5 5 4 3 2 2 2 3 2 2 5 1 7 4 1 2 3 4 2 3 3 3 3 2 3 2 2 1 3 2 6 3 5 8 7 1 7 13 18 20
6 6 7 7 8 8 7 5 3 2 1 1 1 2 2 3 2 7 6 3 3 3 4 5 3 3 5 3 3 2 2 2 1 2 2 2 2 0 2 5 5 9 13 16 21
7 7 8 9 9 9 9 5 3 2 1 0 1 3 5 3 2 4 7 7 4 4 4 3 7 4 3 3 3 4 2 1 2 2 0 1 5 9 3 5 7 11 11 13 19
8 8 9 10 10 10 8 4 2 2 2 2 2 2 2 3 3 5 4 9 8 11 13 10 11 8 4 2 4 3 3 3 1 2 1 1 7 3 6 9 10 10 10 12 17
9 9 9 10 11 10 7 0 3 3 4 3 2 3 2 2 2 4 5 4 6 8 9 6 6 4 3 3 3 5 1 2 4 4 1 3 7 2 4 8 10 12 13 12 13
11 11 9 9 10 9 3 4 5 5 4 4 3 4 2 2 2 3 4 5 5 3 4 7 5 3 3 3 1 2 3 2 4 2 3 4 18 11 6 10 13 12 12 13 14
14 13 8 8 9 6 5 5 3 4 5 1 1 3 2 3 3 5 3 2 3 7 3 4 4 1 2 2 2 2 2 3 4 1 3 7 15 18 10 11 14 14 14 15 17
15 14 9 6 7 1 5 4 3 2 4 2 2 2 2 3 3 2 2 3 4 3 1 5 1 2 1 2 1 0 2 4 4 1 3 6 19 16 7 8 13 16 15 16 14
14 13 8 4 1 2 4 5 3 3 4 1 1 2 2 3 2 1 2 2 3 3 2 4 2 1 2 1 1 1 2 2 3 5 1 9 6 4 0 2 5 12 12 13 17
9 10 6 4 4 6 4 3 3 2 4 3 2 1 2 4 2 1 3 3 3 3 4 1 0 2 1 0 3 3 1 1 4 5 3 5 5 5 4 7 5 10 12 16 14
6 6 6 5 5 5 3 3 4 1 1 2 1 0 2 4 2 3 4 3 4 3 3 1 0 1 0 1 2 3 2 1 1 1 2 3 1 6 3 3 3 2 10 13 15
4 6 6 6 6 5 4 6 3 5 5 2 2 2 3 3 2 1 3 6 2 3 3 1 0 2 1 2 1 2 1 4 3 1 1 2 1 5 1 0 4 3 3 5 10
3 8 7 7 5 5 8 3 4 3 2 3 3 3 2 2 1 1 2 1 3 3 1 2 1 1 1 1 1 3 4 3 3 3 2 1 1 9 4 4 3 5 7 5 4
3 6 7 6 8 6 5 4 3 3 5 2 3 3 5 5 0 1 3 1 2 4 3 3 3 1 3 1 3 2 2 4 2 2 4 1 5 4 4 5 6 5 6 6 6
5 6 4 7 8 6 4 2 6 6 6 8 3 4 3 2 3 2 4 4 6 8 6 4 3 0 3 1 1 2 1 2 5 1 1 3 6 8 3 2 2 5 4 5 4
7 7 4 5 9 4 4 5 4 3 5 3 5 4 7 5 3 4 5 3 2 5 1 4 1 0 0 2 4 0 3 3 3 1 4 4 5 5 3 2 1 4 6 5 3
5 4 3 10 7 4 4 7 4 5 4 5 6 4 4 7 8 4 4 2 2 4 1 4 2 0 1 4 5 2 1 5 3 2 2 4 6 6 6 4 5 6 5 6 7
3 3 3 11 3 1 4 5 3 3 3 3 4 3 7 7 5 5 7 5 7 8 7 4 4 3 4 1 2 3 4 4 4 3 1 2 8 3 7 7 4 8 8 6 8
4 2 3 2 4 2 3 3 2 4 4 5 6 4 3 7 3 5 4 1 5 6 7 6 1 2 2 2 2 3 4 4 4 2 6 4 6 1 4 6 8 9 8 8 9
3 3 3 3 1 6 5 4 4 4 3 4 4 3 3 3 3 4 5 2 4 4 5 4 3 6 6 4 4 4 5 5 4 3 4 8 21 16 12 9 11 8 10 9 10
2 4 2 4 4 5 4 4 5 5 3 4 2 5 7 5 2 4 2 2 2 2 3 4 5 5 5 5 5 5 5 9 10 8 10 20 14 26 18 13 15 10 8 7 12
5 4 2 2 3 9 6 6 9 3 7 5 5 8 6 7 8 8 7 4 6 1 5 2 3 3 5 5 6 8 15 13 13 11 17 19 22 30 25 16 14 13 10 10 13
5 3 4 3 4 6 6 7 9 6 6 5 8 6 5 10 6 3 2 3 6 8 7 5 5 3 4 3 0 7 14 15 5 8 8 10 24 19 16 12 11 11 10 12 11
Wind_Direction
64 63 65 59 57 44 24 18 14 10 11 9 7 8 20 84 91 57 40 347 344 346 92 90 36 38 63 61 44 113 71 136 179 166 164 160 152 57 100 126 207 194 184 111 166
59 54 43 35 26 16 7 356 351 352 358 3 4 8 22 111 97 58 12 6 15 93 95 64 17 30 51 43 26 64 89 171 184 183 178 169 170 161 163 161 224 222 173 150 163
40 43 41 32 17 3 352 343 336 335 339 352 357 4 52 142 80 345 360 11 42 102 81 76 84 66 62 46 3 55 113 171 150 217 145 151 147 153 154 229 222 207 175 162 168
28 24 21 17 11 359 342 328 319 313 327 344 355 9 112 128 138 353 346 33 76 100 85 82 49 55 64 64 20 88 45 106 182 120 131 164 125 194 203 224 152 224 168 167 178
9 10 5 1 354 344 332 321 304 294 312 335 351 35 126 50 44 1 1 56 85 108 68 89 71 105 87 94 74 74 176 81 48 138 82 131 198 225 234 221 92 138 160 177 185
351 355 353 352 348 342 330 313 276 251 273 318 3 120 99 84 100 31 44 95 93 77 57 39 123 114 98 68 72 126 113 128 194 162 149 198 244 243 271 145 149 166 180 184 191
338 342 343 342 342 338 332 316 266 211 210 257 123 128 67 163 108 49 55 64 73 115 107 94 122 70 129 100 154 131 102 317 214 210 240 142 260 237 178 163 183 194 193 194 202
321 328 332 333 336 338 333 313 232 183 167 144 119 114 125 131 102 60 77 68 78 90 89 102 101 98 60 120 34 44 63 8 181 158 336 190 276 289 167 172 207 209 207 208 212
302 309 317 327 334 340 339 337 147 139 137 137 117 105 134 115 106 63 66 88 86 80 78 91 68 85 57 81 29 13 343 339 326 205 145 196 270 232 174 198 219 212 212 216 225
291 298 304 321 332 341 356 131 124 114 124 101 83 57 35 164 91 80 74 71 85 82 25 42 50 70 44 55 286 306 340 297 256 213 215 226 262 256 214 208 227 223 220 220 226
286 291 291 312 331 340 136 132 39 4 52 96 174 130 148 138 100 62 51 102 62 52 59 10 67 45 238 177 127 148 218 267 258 247 258 239 266 268 231 213 226 226 220 222 227
276 279 274 300 331 57 155 110 153 161 111 36 109 68 128 155 95 358 38 96 74 106 46 27 95 222 167 151 157 200 319 304 279 171 233 299 285 279 241 222 216 223 227 228 229
264 267 256 274 278 143 126 122 133 135 98 304 173 145 191 140 136 200 51 116 103 104 87 144 185 179 171 64 48 291 227 274 247 317 207 313 290 327 298 244 212 231 232 232 227
248 249 234 278 164 147 111 123 133 129 74 252 220 236 74 126 52 353 33 113 42 155 146 169 288 163 123 171 127 303 201 289 318 17 308 5 291 308 336 306 233 237 228 235 229
251 218 197 177 138 151 147 144 141 98 11 160 174 134 36 127 127 7 17 42 147 140 105 302 81 94 197 158 172 244 44 33 43 59 349 2 325 272 348 4 3 270 239 238 234
229 184 180 170 149 141 141 140 117 52 253 185 103 144 86 32 41 20 52 53 116 98 45 99 41 62 67 92 92 113 96 53 68 86 15 330 39 286 278 162 313 286 300 258 242
193 174 174 167 154 148 144 104 57 154 34 196 178 160 114 157 93 90 90 75 155 98 318 17 22 340 118 116 50 78 52 335 353 12 239 6 301 254 280 266 244 294 313 316 288
192 177 180 164 153 147 143 60 182 193 199 121 111 89 171 164 251 119 104 242 225 110 120 157 304 167 350 116 163 83 127 142 283 290 291 3 239 238 218 270 254 273 278 295 297
181 169 170 176 178 158 83 119 211 201 165 145 111 124 227 184 159 149 207 214 207 179 166 148 252 46 50 70 26 167 113 162 107 67 307 262 281 291 299 349 26 243 265 278 286
163 150 138 164 161 141 85 233 227 199 132 145 148 161 173 192 162 179 190 203 214 194 348 193 88 33 96 84 39 102 137 61 26 306 293 280 278 244 282 315 318 202 211 235 267
166 101 155 149 138 56 179 223 233 228 168 152 186 140 177 171 166 196 217 250 173 154 113 141 110 228 77 193 181 76 21 52 129 115 235 302 268 214 214 203 191 210 245 253 262
136 112 156 161 87 35 173 203 213 201 156 195 130 121 173 166 162 201 211 229 171 152 162 191 133 201 208 74 138 168 172 159 126 208 147 153 270 232 240 248 255 259 253 255 258
120 125 61 158 169 219 265 274 233 164 206 179 192 193 177 168 183 200 195 50 158 155 162 182 170 3 347 85 8 229 191 134 99 86 199 147 262 314 271 265 250 251 261 270 276
112 114 342 55 12 145 156 216 220 205 193 163 165 118 120 172 252 183 223 196 182 180 123 125 147 182 203 184 137 209 184 195 159 154 194 224 273 259 275 266 268 253 258 269 283
99 214 195 189 226 166 174 167 180 191 209 170 206 199 163 178 153 202 206 82 27 105 62 139 213 196 228 200 182 254 179 193 202 202 220 267 236 273 269 255 265 256 270 280 283
143 146 40 133 100 154 173 216 178 202 159 227 183 197 190 170 185 196 147 181 200 84 155 5 215 139 292 206 206 253 271 222 221 235 247 267 276 266 279 275 269 264 266 266 271
172 133 121 143 132 128 217 188 197 163 214 177 186 139 189 227 192 130 176 149 161 154 174 151 142 111 255 0 144 280 239 238 200 214 208 222 248 277 285 272 264 265 248 247 259